Regional Weather Roundup
Issued by NWS Goodland, KS

Home | Current Version | Previous Version | Text Only | Print | Product List | Glossary Off
Versions: 1 2 3 4 5 6 7 8 9 10 11 12 13 14 15 16 17 18 19 20 21 22 23 24 25 26 27 28 29 30 31 32 33 34 35 36 37 38 39 40 41 42 43 44 45 46 47 48 49 50

000
ASUS43 KGLD 230908
RWRGLD

GOODLAND FORECAST AREA HOURLY WEATHER ROUNDUP
NATIONAL WEATHER SERVICE GOODLAND KS
200 AM MST TUE JAN 23 2018

...OFFICIAL OBSERVATIONS...

CITY           SKY/WX    TMP DP  RH WIND       PRES   REMARKS
GOODLAND KS    PTCLDY    16   7  67 NW14      30.11S WCI   2
HILL CITY KS   CLEAR     24  16  71 NW9       30.12R
IMPERIAL NEB   PTCLDY    21  12  68 NW14      30.12R WCI   8
MCCOOK NEB     CLEAR     17  10  74 W16       30.12R WCI   2
AKRON CO       CLOUDY    23  13  65 W10       30.12R WCI  12
BURLINGTON CO  MOCLDY    17   7  64 W9        30.12R
LIMON CO       MOCLDY    14   8  77 W7        30.13R
$$

...UNOFFICIAL OBSERVATIONS...

CITY           SKY/WX    TMP DP  RH WIND       PRES   REMARKS
COLBY KS       PTCLDY    21  16  79 NW12      30.13R WCI   9
LENORA KS        N/A     22  32 100 CALM        N/A
NORTON KS      CLEAR     19  10  68 W16       30.09  WCI   5
SHARON SPRINGS   N/A     16  10  75 CALM        N/A
TRIBUNE KS     PTCLDY    21  12  68 W10       30.17R WCI  10
KIT CARSON CO    N/A     16   8  69 MISG        N/A
YUMA CO        FAIR      19  10  68 W9        30.12R
$$




USA.gov is the U.S. government's official web portal to all federal, state and local government web resources and services.